SCOUT A R/B, 1953

Orbit data source: Space-Track

SCOUT A R/B, 1953 is space debris in LEO originally from a launch on Fri, 28 Jan 1966 UTC launched from the Air Force Western Test Range (AFWTR). Debris objects in space refer to the collection of defunct objects orbiting the Earth. Examples of debris include non-operational satellites, rocket bodies, and fragments generated from explosions, collisions, or faulty payload assembly.

Loading next visibility...
SCOUT A R/B details
Identifier
1953, 1966-005B
Orbit
LEO
Last TLE update17 hours ago
Origin
Flag of USNASA LaRC (US)
ManufacturerABL
MissionSpacecraft
Bus & MotorALTAIR, Unknown motor
Mass33 kg wet, 33 kg dry
Launch date (UTC)
1966-01-28 (59 years ago)
Launch vehicleUnknown
Launch site
Air Force Western Test Range (AFWTR)
Object type
Payload
Rocket body
Debris
Shape & HBRCyl, 1.5 m
Radar Cross Section0.687 m², Medium (>0.1 m² and < 1m²)

Expand to show TLE details & history

TLE from 17 hours ago
0 SCOUT A R/B
1 01953U 66005B   24355.82171989  .00000282  00000-0  28387-3 0  9992
2 01953  90.1523 344.1914 0227526 357.2063   2.7808 13.64909116928752
Epoch: 2024-12-20T19:43Z
Definitive object data (Epoch: 2024-12-20T19:43:16.598Z)
Latitude-0.00004°
Longitude-41.50948°
Altitude852.776 km
Speed7.51 km/s
True Right ascension22h 56m 45s
True Declination0° 00' 00"
Sunlit
Object was in daylight at TLE epoch
Visualization TLE readout
Latitude-27.80275°
Longitude138.42169°
Altitude1,169.264 km
Speed7.198 km/s
Apparent Right ascension09h 18m 01s
Apparent Declination-74° 54' 52"
Sunlit
Object is in daylight
Visualization observer readout
Local Sidereal Time11:36:28
Azimuth189.557° SSW
Elevation-27.082°
Doppler factor1
Orbital elements
Apogee altitude1,183.142 km
Perigee altitude846.719 km
Semi-major axis7,393.068 km
Eccentricity0.0227526
Inclination90.1523°
RAAN344.1914°
Arg. of periapsis357.2063°
True anomaly2.91098°
Mean anomaly2.7808°
Eccentric anomaly2.84552°
Mean motion3.41434 °/min
BSTAR0.00028387
Orbital period105.44 mins
Loading maneuver chart data...
Loading historical data...
Loading historical data...
Loading historical data...
Loading historical data...
Loading historical data...
Loading historical data...
Loading historical data...

SCOUT A R/B Visibility forecast

Observer location: undefined°, undefined

Span
Click to sort rows by Start time (UTC) header in descending order
Start Az.
Max El. time (UTC)
Max El. Az.
Max El.
End time (UTC)
End Az.
4 mins2024-12-21 22:17:38.945Z85.312° E2024-12-21 22:18:38.945Z74.072° E13.559°2024-12-21 22:21:38.945Z42.233° NE
9 mins2024-12-21 23:59:38.945Z186.485° SSW2024-12-22 00:03:38.945Z286.247° WNW43.688°2024-12-22 00:08:38.945Z353.017° N
11 mins2024-12-22 11:01:38.945Z24.074° NE2024-12-22 11:06:38.945Z92.18° ESE34.328°2024-12-22 11:12:38.945Z155.007° SSE
|